Погода Миллерово

Погода Миллерово : погода сейчас, прогноз погоды и архив. Всё, что Вы хотите узнать о погоде Миллерово!

Хотите узнать прогноз погоды Миллерово? Тогда Вам сюда: Погода Миллерово

Поиск расширенной информации на нашем сайте:

Другие новости

Новости СМИ2

Главная страница сайта

Новости сайта

03.07.2017

Напоминаем, что на нашем специализированном сайте Метеоцентр.Азия вы можете получить высокодетализированные автоматические прогнозы погоды по пунктам России, СНГ и мира в авиационном формате (включающие направление и скорость ветра, видимость, явления погоды, количество и форму облачности, нижнюю и верхнюю границу облачности).


Погода Миллерово - сегодня

Время (UTC), дата Ветер
(°,м/с) 
Видим.   Явления Облачность Т
(°С)
Тd
(°С)
f(%) Тe
(°С)
Pmin
(гПа)
dP
(гПа)
Po
(мм)
O2
(г/м3)
Тmin Tmax R s Состояние
почвы
00 18.08.17 060 (СВ) 10 км    ясно 
+19.6 +4.8 38 +20  1018.7  0.8  750  281           
03 18.08.17 070 (В) 10 км    3/0 средняя 
[Ac trans]
+19.9 +4.3 36 +21  1019.6  0.9  751  281  +18.2        очень
сухая
с трещинами 
06 18.08.17 070 (В) 10 км    3/0 верхняя 
[Cc]
+26.9 +5.1 25 +27  1020.1  0.9  752  275           
09 18.08.17 050 (СВ) 5-10{10}  10 км    1/1 1000 м 
[Cu med, cong]
+31.6 +3.6 17 +32  1019.8  752  271           
12 18.08.17 080 (В) 7-11{13}  10 км    9/9 1000 м 
[Cu med, cong]
+32.6 +1.7 14 +33  1018.5  -1.2  751  270           
15 18.08.17 060 (СВ) 4{13}  10 км    9/5 1000 м средняя 
[Cu med, cong|Ac trans]
+29.7 +3.6 19 +30  1018.6  -0.1  751  272    +33.7       
18 18.08.17 050 (СВ) 7{10}  10 км    ясно 
+25.8 +5.3 27 +26  1019.8  0.9  751  276           
21 18.08.17 070 (В) 5{10}  10 км    3/3 1000 м 
[Sc diur, vesp]
+22.9 +7.1 36 +23  1020.2  0.3  752  278           
00 19.08.17 050 (СВ) 10 км    ясно 
+20.8 +6.7 40 +21  1020.3  752  280           
03 19.08.17 060 (СВ) 10 км    5/0 средняя, верхняя 
[Ac lent|Cc]
+20.5 +7.7 44 +21  1021  0.6  752  281  +19.7        очень
сухая
с трещинами 
06 19.08.17 060 (СВ) 6{11}  10 км    1/0 верхняя 
[Ci sp]
+26.3 +7.8 31 +26  1021.5  0.9  753  275           
09 19.08.17 060 (СВ) 7-11{13}  10 км    ясно 
+31.2 +6.2 21 +31  1020.6  -0.6  752  271           
12 19.08.17 070 (В) 5{13}  10 км    3/3 1000 м 
[Cu med, cong]
+32.3 +5.1 18 +32  1019.7  -0.8  752  270           
15 19.08.17 070 (В) 5-10  10 км    5/5 1000 м 
[Cu med, cong]
+30 +7.2 24 +30  1019.7  -0.2  752  272    +32.6       
18 19.08.17 050 (СВ) 6{10}  10 км    5/0 средняя 
[Ac trans]
+25 +6.2 30 +25  1020.4  0.5  752  277           
21 19.08.17 040 (СВ) 10 км    ясно 
+22.2 +4.8 32 +22  1020.5  -0.2  752  279           
00 20.08.17 050 (СВ) 10 км    ясно 
+19.9 +5.8 40 +21  1020.3  -0.3  752  281           
03 20.08.17 010 (С) 10 км    1/0 средняя 
[Ac lent]
+18.3 +7.4 49 +19  1020.6  0.2  752  283  +16.8        очень
сухая
с трещинами 
06 20.08.17 060 (СВ) 10 км    6/0 средняя 
[Ac trans]
+26.1 +7.6 31 +26  1020.2  0.1  752  275           
09 20.08.17 090 (В) 6-10{11}  10 км    4/0 верхняя 
[Ci sp]
+31.3 +6.4 21 +31  1019.2  -0.7  751  271           
12 20.08.17 090 (В) 6-11{11}  10 км    8/8 1000 м верхняя 
[Cu med, cong|Ci fib]
+33.9 +0.4 12 +34  1017.6  -1.4  750  269           
15 20.08.17 110 (В) 5{12}  10 км    9/5 600 м средняя, верхняя 
[Cu med, cong|Ac trans|Ci fib]
+31.3 +0.6 14 +31  1016.9  -0.9  750  271    +34.2       
18 20.08.17 070 (В) 10 км    9/0 средняя 
[Ac trans]
+26.8 +3.2 22 +27  1018  0.8  750  275           
21 20.08.17 090 (В) 10 км    6/0 средняя 
[Ac trans]
+25 +6.2 30 +25  1018  750  276           
00 21.08.17 100 (В) 10 км    9/6 600 м средняя 
[Sc|Ac trans]
+22.6 +6.8 36 +23  1018.5  0.3  750  278           
Время (UTC), дата Ветер
(°,м/с) 
Видим.   Явления Облачность Т
(°С)
Тd
(°С)
f(%) Тe
(°С)
Pmin
(гПа)
dP
(гПа)
Po
(мм)
O2
(г/м3)
Тmin Tmax R s Состояние
почвы

Для получения пояснительной информации подведите курсор к названию столбца.

ПОГОДА Миллерово - архив

Всё, что Вы хотите узнать о погоде Миллерово - удобно и подробно!

Выберите нужную дату (начиная с 1 января 2015* года) и нажмите кнопку "Найти".
Будут отображены архивные сводки погоды по пункту Миллерово, начиная с указанной даты.


Отображать данные в формате CSV (для использования в таблицах Excel)


Внимание! Наш архив погоды предназначен исключительно для личного некоммерческого использования в познавательных целях. Если Вам необходимы официальные справки о состоянии погоды (для производственных, юридических, коммерческих и т.п. целей), обращайтесь в органы Росгидромета.

*Примечание: данная дата относится к архиву по метеостанциям СССР (Россия, СНГ, Балтия).
Архив по метеостанциям Зарубежной Европы и Азии (кроме Китая) хранится 10 дней, по другим регионам земного шара (Китай, Африка, Америка, Австралия, Океания) - 1 день.

Миллерово - район местоположения метеостанции


Название, широта, долгота, высота метеостанции:
Миллерово 48.9°ш. 40.4°д. 155 м над ур. моря [Российская Федерация]

Дополнительная информация

В oтличие oт бoльшинства пoгoдных сайтoв мы публикуем пoдрoбную метеoинфoрмацию в детальнoм прoфессиoнальнoм фoрмате.

Характеристики температуры и влажнoсти вoздуха измеряются на высoте 2 м в тени вдали oт зданий и деревьев.
Скoрoсть ветра измеряется на высoте 10 м (на урoвне рoста челoвека скoрoсть ветра ниже в 1.5-2 раза). Если метеoстанция нахoдится в гoрoде или в лесу, тo скoрoсть ветра занижена на 2-4 м/с пo сравнению с oткрытым местoм. Скoрoсть ветра над акватoриями крупных рек и oзёр, а также на вершинах хoлмoв на 2-5 м/с выше, чем в oбычных услoвиях.
Атмoсфернoе давление в разных тoчках местнoсти мoжет значительнo oтличаться oт давления на метеoстанции, в зависимoсти oт услoвий рельефа (при пoдъёме на 10 м давление пoнижается примернo на 1 мм рт.ст.).